Flag for Switzerland Weather past 2 weeks in Einsiedeln, Schwyz, Switzerland

Now
56 °F

Cool.


Feels Like: 55 °F
Forecast: 45 / 53 °F
Wind: 7 mph from Southeast

Location: Altdorf

Current Time: Sep 5, 2015 at 1:30:40 AM

Latest Report: Sep 5, 2015 at 12:00 AM


Visibility: N/A

Pressure: 30.01 "Hg (27.00 "Hg at 887m altitude)

Humidity: 88%

Dew point: 53 °F

Location of EinsiedelnLocation

Historic Weather in Einsiedeln — Graph

°F

Einsiedeln temperature yesterday

Maximum temperature yesterday: 68 °F (at 2:00 PM)
Minimum temperature yesterday: 54 °F (at 6:00 AM)
Average temperature yesterday: 60 °F

Past Weeks' High & Low Weather Summary

 TemperatureHumidityPressure
High86 °F (Aug 30, 5:00 PM)98% (Aug 25, 3:00 AM)30.28 "Hg (Aug 25, 3:00 AM)
Low50 °F (Aug 26, 7:00 AM)22% (Aug 31, 4:00 AM)29.67 "Hg (Aug 24, 8:00 AM)
Average66 °F70%29.99 "Hg
* Reported Aug 20 10:00 PM — Sep 4 10:00 PM, Einsiedeln, Weather by CustomWeather, © 2015

Note: Actual official high and low records may vary slightly from our data, if they occured in-between our weather recording intervals... More about our weather records

Advertising

Einsiedeln weather history for previous 24 hours

 ConditionsComfort  
Time TempWeatherWind HumidityBarometerVisibility
10:00 PM
Fri, Sep 4
61 °FCool.6 mph75%29.97 "HgN/A
9:00 PM63 °FMild.1 mph69%29.95 "HgN/A
7:00 PM65 °FMild.8 mph56%29.92 "HgN/A
6:00 PM65 °FMild.9 mph57%29.92 "HgN/A
5:00 PM67 °FOvercast.8 mph55%29.92 "Hg9 mi
4:00 PM67 °FMild.14 mph53%29.92 "HgN/A
3:00 PM67 °FMild.13 mph54%29.94 "HgN/A
2:00 PM68 °FScattered clouds.14 mph51%29.95 "Hg11 mi
1:00 PM66 °FMild.5 mph58%29.97 "HgN/A
12:00 PM62 °FCool.3 mph66%30.01 "HgN/A
11:00 AM62 °FCool.3 mph75%30.01 "HgN/A
10:00 AM58 °FCool.3 mph82%30.03 "HgN/A
9:00 AM57 °FCool.3 mph88%30.04 "HgN/A
8:00 AM55 °FPartly sunny.No wind94%30.05 "Hg9 mi
7:00 AM54 °FCool.1 mph97%30.04 "HgN/A
6:00 AM54 °FCool.2 mph97%30.04 "HgN/A
5:00 AM55 °FOvercast.2 mph97%30.05 "Hg9 mi
4:00 AM54 °FCool.1 mph98%30.04 "HgN/A
3:00 AM55 °FCool.2 mph98%30.04 "HgN/A
2:00 AM56 °FDrizzle. Overcast.1 mph95%30.04 "Hg9 mi
1:00 AM56 °FCool.2 mph97%30.04 "HgN/A
Weather by CustomWeather, © 2015

See weather overviewHow to use our weather pages